sat.trackr.live / text

‹ back to catalog

KUIPER-00511

NORAD 68888 · 2026-095AA

PAYLOAD ACTIVE UNKNOWN

§ Identity

Operator
Country
US
Launch date
2026-04-28
Launch site
AFETR
Launch vehicle
Mass (kg)
RCS (m²)

External: N2YO · Heavens-Above · Gunter

§ Orbital elements

Epoch: 2026-05-25T00:23:50.383968Z

Period
93.67 min
Inclination
51.8794°
Eccentricity
0.0006952
Mean motion
15.37331832 rev/d
Perigee alt
449.3 km
Apogee alt
458.8 km
Semi-major
6,832.1 km
B*
6.6233e-4
RAAN
354.4902°
Arg perigee
205.6766°
Mean anomaly
154.3877°
Rev number
416

§ Raw data

KUIPER-005111 68888U 26095AA  26145.01655537  .00024313  00000+0  66233-3 0  99952 68888  51.8794 354.4902 0006952 205.6766 154.3877 15.37331832  4167

JSON: /api/v1/satellites/68888 · /tle

For live sub-satellite position, see the globe view (requires WebGL).

§ Visibility from observer

Set your observer location to see the next 7 days of passes ≥ 10°. The values pass through the URL so the page stays shareable.

No JS? Fill the form by hand. The geolocation button needs JavaScript.